Flag Weather past 2 weeks in Lahti, Finland

Now
27 °F

Ice fog.


Feels Like: 21 °F
Forecast: 23 / 29 °F
Wind: 5 mph from East

Location: Utti

Current Time: Nov 22, 2014 at 5:16:22 AM

Latest Report: Nov 22, 2014 at 4:20 AM


Visibility: 1 mi

Pressure: 30.18 "Hg

Humidity: 100%

Dew point: 27 °F

Location of LahtiLocation

Historic Weather in Lahti — Graph

°F

Lahti temperature yesterday

Maximum temperature yesterday: 27 °F (at 10:20 AM)
Minimum temperature yesterday: 25 °F (at 12:20 AM)
Average temperature yesterday: 25 °F

Past Weeks' High & Low Weather Summary

 TemperatureHumidityPressure
High48 °F (Nov 11, 2:20 PM)100% (Nov 7, 3:20 AM)30.63 "Hg (Nov 7, 3:20 AM)
Low23 °F (Nov 20, 10:50 AM)75% (Nov 14, 2:50 PM)29.71 "Hg (Nov 7, 10:50 PM)
Average33 °F96%30.26 "Hg
* Reported Nov 7 3:20 AM — Nov 22 3:50 AM, Lahti, Weather by CustomWeather, © 2014

Note: Actual official high and low records may vary slightly from our data, if they occured in-between our weather recording intervals... More about our weather records

Advertising

Lahti weather history for previous 24 hours

 ConditionsComfort  
Time TempWeatherWind HumidityBarometerVisibility
3:50 AM
Nov 22
27 °FIce fog.6 mph100%30.18 "Hg1 mi
3:20 AM27 °FIce fog.6 mph100%30.18 "Hg1 mi
2:50 AM27 °FIce fog.5 mph100%30.21 "Hg1 mi
2:20 AM27 °FIce fog.6 mph100%30.21 "Hg2 mi
1:50 AM27 °FIce fog.5 mph93%30.21 "Hg2 mi
1:20 AM27 °FLow clouds.6 mph93%30.21 "Hg6 mi
12:50 AM27 °FLow clouds.7 mph93%30.21 "Hg6 mi
12:20 AM27 °FLight snow. Partly cloudy.7 mph93%30.24 "HgN/A
11:50 PM
Nov 21
25 °FLight snow. Overcast.8 mph100%30.24 "Hg2 mi
11:20 PM25 °FLight snow. Overcast.9 mph100%30.24 "Hg1 mi
10:50 PM25 °FLight snow. Overcast.10 mph100%30.24 "Hg1 mi
10:20 PM27 °FSnow. Overcast.8 mph93%30.24 "Hg1 mi
9:50 PM27 °FSnow. Overcast.9 mph93%30.24 "Hg1 mi
9:20 PM27 °FSnow. Overcast.9 mph93%30.24 "Hg1 mi
8:50 PM27 °FSnow. Overcast.9 mph93%30.27 "Hg1 mi
8:20 PM27 °FSnow. Overcast.7 mph93%30.27 "Hg1 mi
7:50 PM27 °FHeavy snow. Overcast.6 mph93%30.27 "Hg1 mi
7:20 PM27 °FSnow. Overcast.6 mph93%30.27 "Hg1 mi
6:50 PM27 °FSnow. Overcast.6 mph93%30.30 "Hg1 mi
6:20 PM25 °FSnow. Low clouds.6 mph100%30.30 "Hg1 mi
5:50 PM25 °FSnow flurries. Mostly cloudy.5 mph100%30.30 "Hg1 mi
5:20 PM25 °FSnow flurries. Low clouds.6 mph100%30.30 "Hg2 mi
4:50 PM25 °FLight snow. Low clouds.8 mph100%30.33 "Hg6 mi
4:20 PM25 °FSnow. Low clouds.7 mph100%30.33 "Hg2 mi
3:50 PM25 °FLight snow. Ice fog.7 mph100%30.36 "Hg2 mi
3:20 PM25 °FLow clouds.7 mph100%30.36 "Hg4 mi
2:50 PM25 °FLow clouds.7 mph100%30.36 "Hg4 mi
2:20 PM25 °FLow clouds.7 mph100%30.36 "Hg6 mi
1:50 PM27 °FSnow flurries. Low clouds.6 mph93%30.39 "Hg6 mi
1:20 PM25 °FSnow flurries. Low clouds.6 mph100%30.39 "Hg6 mi
12:50 PM25 °FLow clouds.6 mph100%30.39 "HgN/A
12:20 PM25 °FLow clouds.7 mph100%30.39 "HgN/A
11:50 AM27 °FLow clouds.6 mph93%30.42 "HgN/A
11:20 AM27 °FLow clouds.7 mph93%30.42 "HgN/A
10:50 AM27 °FLow clouds.5 mph93%30.42 "Hg5 mi
10:20 AM27 °FLow clouds.2 mph93%30.42 "Hg5 mi
9:50 AM25 °FMostly cloudy.3 mph100%30.42 "Hg5 mi
9:20 AM25 °FLow clouds.5 mph100%30.45 "Hg5 mi
8:50 AM25 °FPartly sunny.3 mph100%30.45 "Hg5 mi
8:20 AM25 °FPassing clouds.3 mph100%30.45 "Hg5 mi
7:50 AM25 °FPartly cloudy.3 mph100%30.42 "Hg5 mi
7:20 AM25 °FMostly cloudy.5 mph100%30.45 "Hg4 mi
6:50 AM25 °FPassing clouds.6 mph100%30.45 "Hg4 mi
6:20 AM25 °FPassing clouds.6 mph100%30.45 "Hg4 mi
5:50 AM25 °FPassing clouds.6 mph100%30.48 "Hg5 mi
5:20 AM25 °FLow clouds.6 mph100%30.48 "Hg5 mi
Weather by CustomWeather, © 2014

See weather overviewHow to use our weather pages